Location: PACMO
(41.3967°N, 90.3760°W)
Time: 16:46:43
(UTC-05:00)

Daily predictions for brighter satellites

Satellite Brightness Start Highest point End
(mag) Time Altitude Azimuth Time Altitude Azimuth Time Altitude Azimuth
Cosmos 1937 Rocket 3.6 19:14:20 10° NNW 19:19:36 59° ENE 19:24:47 10° SSE
Cosmos 1825 Rocket 3.6 19:19:59 10° N 19:24:25 80° E 19:28:52 10° S
ALOS 2.3 19:20:20 10° SSE 19:24:56 65° ENE 19:29:35 10° N
Cosmos 2298 Rocket 4.1 19:20:31 10° NNW 19:25:52 68° ENE 19:31:10 10° SSE
NOSS 3-1 (C) 4.2 19:20:52 10° NNW 19:28:17 57° NE 19:36:31 10° SE
HJ-1C 4.3 19:32:41 10° SE 19:35:35 28° ENE 19:38:30 10° NNE
Cosmos 1763 Rocket 3.4 19:31:43 10° S 19:36:45 67° ESE 19:41:53 10° NNE
H-2A R/B 3.1 19:33:57 10° SE 19:37:26 40° ENE 19:40:58 10° N
Cosmos 540 Rocket 4.4 19:33:26 10° SSE 19:37:30 24° E 19:41:34 10° NE
SL-08 ROCKET BODY 4.4 19:32:05 10° S 19:37:49 59° E 19:43:39 10° NNE
FREGAT/IRIS 2.8 19:34:53 10° SSE 19:37:49 47° ENE 19:40:46 10° N
Meteor 2-5 Rocket 3.8 19:41:22 10° N 19:47:16 73° E 19:52:58 10° SSE
Cosmos 1656 Rocket 3.7 19:43:05 10° NNW 19:48:43 64° ENE 19:54:14 10° SE
FENGYUN 3A 3.8 19:43:41 10° S 19:49:02 80° WSW 19:54:26 10° NNW
COSMO-SKYMED 1 4.3 19:45:36 10° N 19:49:36 37° WNW 19:53:36 10° SW
Meteor 1-22 Rocket 4.5 19:44:22 10° SSE 19:49:46 44° E 19:55:00 10° NNE
Cosmos 2181 Rocket 4.1 19:47:01 10° N 19:53:14 80° W 19:59:21 10° S
Cosmos 1766 3.7 19:51:10 10° SSE 19:54:49 38° E 19:58:28 10° NNE
COSMOS 2406 3.5 19:50:07 10° S 19:55:29 45° ESE 20:00:55 10° NE
Thor Agena Rocket 3.7 19:50:54 10° NNE 19:56:11 83° WNW 20:01:22 10° SSW
Cosmos 1707 3.1 19:52:42 10° NNW 19:56:37 70° W 20:00:31 10° S
Cosmos 1758 Rocket 4.3 19:52:33 10° NNW 19:57:00 59° W 20:01:24 10° S
BREEZE M DEB (TANK) 3.3 19:50:08 10° WNW 19:58:17 71° NNE 20:00:22 21° ESE
Cosmos 2369 Rocket 4.4 19:53:53 10° NW 19:58:33 27° WSW 20:03:10 10° SSW
Cosmos 1726 Rocket 4.4 19:58:05 10° SSW 20:02:21 54° W 20:06:37 10° N
FengYun 1-2 T 4.2 19:58:07 10° SSE 20:03:45 87° ENE 20:09:20 10° NNW
Spot 2 Rocket 4.1 20:01:55 15° SE 20:05:31 36° ENE 20:10:06 10° N
Cosmos 2074 Rocket 3.9 20:02:17 10° S 20:08:26 74° E 20:14:38 10° N
Resurs 1-3 4.1 20:06:53 19° SE 20:09:36 38° ENE 20:13:41 10° N
Cosmos 1378 4.2 20:08:06 10° NNW 20:11:46 48° W 20:15:23 10° SSW
Cosmos 1544 3.1 20:09:25 10° S 20:12:55 52° E 20:16:28 10° NNE
Cosmos 1674 4.3 20:12:26 10° NNE 20:14:19 18° NE 20:14:19 18° NE
In-Cosmos 22 4.2 20:09:49 10° N 20:15:29 65° ENE 20:21:12 10° SSE
Cosmos 1939 Rocket 4.1 20:16:01 22° ENE 20:16:01 22° ENE 20:18:53 10° NNE
Cosmos 2084 4.3 20:12:45 10° SW 20:16:41 47° NW 20:20:27 10° NNE
Cosmos 1356 3.8 20:25:40 10° N 20:28:51 44° ENE 20:28:51 44° ENE
Cosmos 1125 Rocket 3.5 20:24:10 10° NNW 20:29:27 66° ENE 20:32:24 26° SE
Cosmos 1805 3.2 20:25:55 10° S 20:29:44 58° E 20:33:35 10° NNE
Resurs 01 Rocket 1.5 20:28:06 22° SSE 20:30:53 71° ENE 20:35:17 10° N
FALCON 9 R/B 2.5 20:29:52 10° WSW 20:32:58 38° S 20:34:48 30° SE
GEOS 3 Rocket 4.2 20:34:02 34° ESE 20:34:29 34° ESE 20:39:19 10° S
CZ-2D R/B 3.3 20:32:58 20° S 20:35:32 78° WSW 20:39:21 10° NNW
GP-B 3.0 20:31:44 10° N 20:36:10 65° E 20:38:38 25° SSE
Nadezhda 3 Rocket 4.0 20:30:31 10° N 20:36:46 61° E 20:40:53 22° SSE
Envisat 2.9 20:34:58 27° SSE 20:37:41 66° ENE 20:42:44 10° N
Cosmos 372 Rocket 3.9 20:33:17 10° NNW 20:38:33 70° ENE 20:40:49 34° SE
ISS -1.4 20:35:39 10° SSW 20:36:16 14° SSW 20:36:16 14° SSW
USA 186 3.8 20:42:35 15° N 20:42:35 15° N 20:43:06 10° N
Cosmos 1812 Rocket 3.4 20:36:35 10° S 20:41:01 82° E 20:45:31 10° N
H-2A R/B 4.3 20:49:43 10° NE 20:49:43 10° NE 20:49:49 10° NE
Cosmos 546 4.5 20:46:55 10° WNW 20:50:51 88° NNE 20:50:52 88° NE
Cosmos 1953 3.5 20:58:27 33° NNE 20:58:27 33° NNE 21:00:48 10° NNE
ATLAS 2AS CENTAUR R/B 3.6 20:53:32 10° NNW 21:01:00 39° NE 21:02:57 34° ENE
Cosmos 1295 Rocket 4.3 21:00:05 40° SSE 21:02:12 62° E 21:08:12 10° NNE
Okean 3 Rocket 4.1 20:59:51 10° N 21:03:17 47° NNE 21:03:17 47° NNE
SL-8 Rocket 4.2 21:11:19 48° ENE 21:11:19 48° ENE 21:16:26 10° NNE
Cosmos 1697 Rocket 3.9 21:05:50 10° N 21:09:50 27° NE 21:09:50 27° NE
Cosmos 1980 Rocket 4.0 21:07:33 10° N 21:10:25 17° NE 21:10:25 17° NE
Cosmos 1809 Rocket 4.3 21:13:38 64° ESE 21:13:47 64° E 21:19:51 10° NNE
SJ-11-01 4.2 21:14:45 84° WNW 21:14:45 84° WNW 21:19:23 10° NNW
Cosmos 1656 4.3 21:10:42 10° N 21:15:21 40° NE 21:15:21 40° NE
Cosmos 1900 4.5 21:15:27 10° SW 21:20:31 74° WNW 21:22:27 39° NNE
Milstar 3 Cent rocket 4.1 21:21:44 10° SW 21:22:32 13° SSW 21:22:32 13° SSW
ATLAS CENTAUR R/B 4.4 21:22:48 10° NW 21:31:19 27° WSW 21:33:57 18° SW
Meteor 2-15 4.3 21:27:29 10° N 21:33:12 77° NNE 21:33:12 77° NNE
ARGOS 4.3 21:42:44 33° NNE 21:42:44 33° NNE 21:45:51 10° N
Cosmos 2369 4.3 21:49:29 10° NNW 21:53:51 54° NW 21:53:51 54° NW
H-2A R/B 4.3 22:30:21 19° NNW 22:30:21 19° NNW 22:31:44 10° NNW
ATLAS 2AS CENTAUR R/B 3.7 22:44:38 10° NW 22:50:24 46° WNW 22:50:24 46° WNW
Cosmos 1980 Rocket 4.3 22:50:21 10° NNW 22:52:11 21° NNW 22:52:11 21° NNW
